Retour au catalogue

KUIPER-00662

ActifCommunicationsLEO
NORAD 69791·PAYLOAD·🇺🇸 United States

Lancé Jul 2, 2026 depuis Cape Canaveral Space Force Station

Loading…

Prochains Passages (prochaines 24 heures)

TLE

FraisSource: CelesTrak SupGP

Époque: Sep 15, 2026, 05:22 UTC

1 69791C 26151AE  26258.22403935 -.00001798  00000+0 -23557-3 0  2587
2 69791  51.9003 260.0203 0000174 128.3474 185.4883 14.79897270    18

Suivez KUIPER-00662 en temps réel avec AllMySat

Download on the App Store